CO-66
1 32791U 08021J 10355.65168626 .00000219 00000-0 34335-4 0 08552
2 32791 097.8745 057.5995 0016808 037.0437 323.1910 14.81835138143213
RS-30
1 32953U 08025A 10357.76197650 .00000010 00000-0 00000 0 0 3257
2 32953 082.5017 271.7905 0020074 049.6696 310.6132 12.43010009117297
TACSAT-3
1 35001U 09028A 10356.92510161 .00005250 00000-0 11605-3 0 04799
2 35001 040.4553 158.6029 0023283 335.5216 024.4493 15.44124914089790
PHARMSAT
1 35002U 09028B 10356.82844030 .00005302 00000-0 11582-3 0 4303
2 35002 040.4690 156.7120 0025668 337.8956 022.0752 15.44404603 89809
HAWKSAT1
1 35003U 09028C 10357.57449773 .00014793 00000-0 25573-3 0 4693
2 35003 040.4586 139.5268 0023543 007.1879 352.9271 15.50279094 90069
CP6
1 35004U 09028D 10357.54283534 .00018726 00000-0 30039-3 0 4718
2 35004 040.4594 136.5733 0022815 012.5750 347.5629 15.52265317 90086
AEROCUB3
1 35005U 09028E 10357.68378788 .00426724 74111-4 13122-2 0 5791
2 35005 040.4582 109.7681 0023306 041.0680 319.1898 15.90445506 90392
METEOR-M
1 35865U 09049A 10357.78573879 .00000176 00000-0 10000-3 0 9492
2 35865 098.7339 049.9728 0002115 159.1896 200.9323 14.21833724 65662
RS-38
1 35869U 09049E 10357.80658153 .00000177 00000-0 10000-3 0 9613
2 35869 098.7319 050.0339 0004560 167.4559 192.6686 14.21996445 65679
